| time (UTC) | temp F | wind direction | speed knots | gust knots | rain 1hr in | rain 24hr in | rain mn in | humidity % | barometer mb |
| 20260903131903 | 75 | 197 | 2.6 | 5.2 | 0.00 | 0.00 | 0.00 | 45 | 1024.5 |
| 20260903130856 | 76 | 157 | 2.6 | 7.8 | 0.00 | 0.00 | 0.00 | 44 | 1024.4 |
| 20260903125848 | 76 | 329 | 2.6 | 6.1 | 0.00 | 0.00 | 0.00 | 44 | 1024.5 |
| 20260903124841 | 76 | 167 | 2.6 | 8.7 | 0.00 | 0.00 | 0.00 | 43 | 1024.3 |
| 20260903123833 | 76 | 3 | 2.6 | 7.0 | 0.00 | 0.00 | 0.00 | 45 | 1024.5 |
| 20260903122825 | 77 | 337 | 1.7 | 5.2 | 0.00 | 0.00 | 0.00 | 44 | 1024.6 |
| 20260903121817 | 78 | 354 | 1.7 | 6.1 | 0.00 | 0.00 | 0.00 | 44 | 1024.5 |
| 20260903120809 | 77 | 359 | 1.7 | 5.2 | 0.00 | 0.00 | 0.00 | 45 | 1024.5 |
| 20260903115802 | 75 | 230 | 2.6 | 5.2 | 0.00 | 0.00 | 0.00 | 46 | 1024.5 |
| 20260903114755 | 74 | 45 | 2.6 | 5.2 | 0.00 | 0.00 | 0.00 | 47 | 1024.8 |
| 20260903113748 | 74 | 234 | 2.6 | 6.1 | 0.00 | 0.00 | 0.00 | 45 | 1024.9 |
| 20260903112741 | 74 | 211 | 1.7 | 5.2 | 0.00 | 0.00 | 0.00 | 47 | 1024.8 |
| 20260903111733 | 75 | 259 | 2.6 | 6.1 | 0.00 | 0.00 | 0.00 | 47 | 1024.8 |
| 20260903110726 | 73 | 285 | 1.7 | 5.2 | 0.00 | 0.00 | 0.00 | 49 | 1025.0 |
| 20260903105719 | 74 | 315 | 1.7 | 2.6 | 0.00 | 0.00 | 0.00 | 47 | 1025.1 |
| 20260903104712 | 74 | 315 | 1.7 | 4.3 | 0.00 | 0.00 | 0.00 | 49 | 1025.4 |
| 20260903103705 | 75 | 315 | 1.7 | 3.5 | 0.00 | 0.00 | 0.00 | 51 | 1025.6 |
| 20260903102657 | 75 | 315 | 1.7 | 4.3 | 0.00 | 0.00 | 0.00 | 50 | 1025.8 |
| 20260903101650 | 75 | 315 | 1.7 | 4.3 | 0.00 | 0.00 | 0.00 | 50 | 1025.7 |
| 20260903100641 | 77 | 315 | 1.7 | 3.5 | 0.00 | 0.00 | 0.00 | 49 | 1025.7 |
| 20260903095633 | 79 | 315 | 1.7 | 3.5 | 0.00 | 0.00 | 0.00 | 47 | 1025.8 |
| 20260903094624 | 78 | 183 | 2.6 | 6.1 | 0.00 | 0.00 | 0.00 | 52 | 1025.9 |
| 20260903093615 | 80 | 225 | 1.7 | 4.3 | 0.00 | 0.00 | 0.00 | 54 | 1026.0 |
| 20260903092606 | 79 | 225 | 2.6 | 6.1 | 0.00 | 0.00 | 0.00 | 54 | 1026.1 |
| 20260903091557 | 77 | 225 | 2.6 | 5.2 | 0.00 | 0.00 | 0.00 | 56 | 1026.0 |
| 20260903090549 | 76 | 225 | 1.7 | 4.3 | 0.00 | 0.00 | 0.00 | 61 | 1026.0 |
| 20260903085541 | 75 | 225 | 1.7 | 6.1 | 0.00 | 0.00 | 0.00 | 61 | 1026.1 |
| 20260903084533 | 75 | 225 | 0.9 | 3.5 | 0.00 | 0.00 | 0.00 | 65 | 1026.1 |
| 20260903083526 | 73 | 225 | 1.7 | 4.3 | 0.00 | 0.00 | 0.00 | 67 | 1026.1 |
| 20260903082518 | 73 | 225 | 2.6 | 6.1 | 0.00 | 0.00 | 0.00 | 68 | 1026.1 |
| 20260903081510 | 74 | 212 | 2.6 | 5.2 | 0.00 | 0.00 | 0.00 | 65 | 1026.0 |
| 20260903080502 | 73 | 191 | 2.6 | 7.8 | 0.00 | 0.00 | 0.00 | 67 | 1026.0 |
| 20260903075454 | 74 | 225 | 1.7 | 5.2 | 0.00 | 0.00 | 0.00 | 62 | 1026.0 |
| 20260903074446 | 75 | 270 | 0.9 | 4.3 | 0.00 | 0.00 | 0.00 | 75 | 1026.1 |
| 20260903073438 | 74 | 315 | 0.9 | 3.5 | 0.00 | 0.00 | 0.00 | 75 | 1026.2 |
| 20260903072430 | 74 | 315 | 0.9 | 2.6 | 0.00 | 0.00 | 0.00 | 72 | 1026.2 |
| 20260903071422 | 73 | 315 | 0.9 | 1.7 | 0.00 | 0.00 | 0.00 | 80 | 1026.2 |
| 20260903070414 | 73 | 305 | 0.9 | 3.5 | 0.00 | 0.00 | 0.00 | 79 | 1026.2 |
| 20260903065406 | 72 | 180 | 0.9 | 3.5 | 0.00 | 0.00 | 0.00 | 77 | 1026.1 |
| 20260903064359 | 72 | 180 | 0.9 | 3.5 | 0.00 | 0.00 | 0.00 | 79 | 1026.1 |
| 20260903063352 | 71 | 180 | 0.9 | 2.6 | 0.00 | 0.00 | 0.00 | 82 | 1026.0 |
| 20260903062345 | 70 | 180 | 0.9 | 1.7 | 0.00 | 0.00 | 0.00 | 82 | 1026.0 |
| 20260903061339 | 69 | 180 | 1.7 | 2.6 | 0.00 | 0.00 | 0.00 | 80 | 1026.0 |
| 20260903060333 | 68 | 0 | 0.9 | 1.7 | 0.00 | 0.00 | 0.00 | 82 | 1025.9 |
| 20260903055327 | 67 | 0 | 0.0 | 1.7 | 0.00 | 0.00 | 0.00 | 81 | 1025.7 |
| 20260903054323 | 63 | 0 | 1.7 | 2.6 | 0.00 | 0.00 | 0.00 | 82 | 1025.7 |
| 20260903053318 | 59 | 0 | 2.6 | 3.5 | 0.00 | 0.00 | 0.00 | 86 | 1025.7 |
| 20260903052314 | 58 | 0 | 2.6 | 4.3 | 0.00 | 0.00 | 0.00 | 87 | 1025.8 |
| 20260903051310 | 58 | 357 | 3.5 | 4.3 | 0.00 | 0.00 | 0.00 | 89 | 1025.7 |
| 20260903050306 | 58 | 345 | 3.5 | 4.3 | 0.00 | 0.00 | 0.00 | 90 | 1025.6 |
| 20260903045306 | 55 | 319 | 3.5 | 4.3 | 0.00 | 0.00 | 0.00 | 92 | 1025.5 |
| 20260903044258 | 55 | 327 | 3.5 | 6.1 | 0.00 | 0.00 | 0.00 | 92 | 1025.5 |
| 20260903043254 | 55 | 319 | 3.5 | 5.2 | 0.00 | 0.00 | 0.00 | 92 | 1025.5 |
| 20260903042250 | 55 | 317 | 3.5 | 5.2 | 0.00 | 0.00 | 0.00 | 91 | 1025.6 |
| 20260903041246 | 56 | 319 | 3.5 | 6.1 | 0.00 | 0.00 | 0.00 | 90 | 1025.4 |
| 20260903040242 | 56 | 326 | 3.5 | 5.2 | 0.00 | 0.00 | 0.00 | 89 | 1025.4 |
| 20260903035238 | 56 | 326 | 3.5 | 5.2 | 0.00 | 0.00 | 0.00 | 89 | 1025.3 |
| 20260903034235 | 57 | 329 | 2.6 | 6.1 | 0.00 | 0.00 | 0.00 | 88 | 1025.3 |
| 20260903033231 | 56 | 318 | 2.6 | 3.5 | 0.00 | 0.00 | 0.00 | 89 | 1025.3 |
| 20260903032227 | 56 | 301 | 1.7 | 2.6 | 0.00 | 0.00 | 0.00 | 88 | 1025.3 |
| 20260903031222 | 57 | 307 | 1.7 | 2.6 | 0.00 | 0.00 | 0.00 | 88 | 1025.4 |
| 20260903030218 | 57 | 315 | 1.7 | 2.6 | 0.00 | 0.00 | 0.00 | 88 | 1025.4 |
| 20260903025214 | 58 | 326 | 2.6 | 5.2 | 0.00 | 0.00 | 0.00 | 87 | 1025.5 |
| 20260903024210 | 57 | 319 | 2.6 | 4.3 | 0.00 | 0.00 | 0.00 | 88 | 1025.4 |
| 20260903023206 | 57 | 317 | 2.6 | 4.3 | 0.00 | 0.00 | 0.00 | 88 | 1025.4 |
| 20260903022202 | 57 | 322 | 3.5 | 5.2 | 0.00 | 0.00 | 0.00 | 88 | 1025.3 |
| 20260903021158 | 57 | 321 | 3.5 | 6.1 | 0.00 | 0.00 | 0.00 | 88 | 1025.3 |
| 20260903020154 | 57 | 322 | 3.5 | 5.2 | 0.00 | 0.00 | 0.00 | 88 | 1025.3 |
| 20260903015150 | 58 | 316 | 3.5 | 4.3 | 0.00 | 0.00 | 0.00 | 88 | 1025.3 |
| 20260903014146 | 58 | 322 | 2.6 | 3.5 | 0.00 | 0.00 | 0.00 | 88 | 1025.3 |
| 20260903013142 | 58 | 315 | 2.6 | 3.5 | 0.00 | 0.00 | 0.00 | 89 | 1025.3 |
| 20260903012138 | 58 | 319 | 2.6 | 3.5 | 0.00 | 0.00 | 0.00 | 89 | 1025.3 |
| 20260903011134 | 58 | 321 | 3.5 | 4.3 | 0.00 | 0.00 | 0.00 | 90 | 1025.3 |
| 20260903010130 | 58 | 319 | 3.5 | 5.2 | 0.00 | 0.00 | 0.00 | 91 | 1025.4 |
| 20260903005126 | 57 | 324 | 2.6 | 3.5 | 0.00 | 0.00 | 0.00 | 92 | 1025.4 |
| 20260903004122 | 57 | 341 | 2.6 | 3.5 | 0.00 | 0.00 | 0.00 | 92 | 1025.4 |
| 20260903003118 | 57 | 0 | 2.6 | 3.5 | 0.00 | 0.00 | 0.00 | 93 | 1025.4 |
| 20260903002114 | 57 | 348 | 2.6 | 3.5 | 0.00 | 0.00 | 0.00 | 93 | 1025.3 |
| 20260903001110 | 57 | 333 | 2.6 | 3.5 | 0.00 | 0.00 | 0.00 | 93 | 1025.3 |
| 20260903000106 | 57 | 319 | 3.5 | 4.3 | 0.00 | 0.00 | 0.00 | 91 | 1025.3 |
| 20260902235102 | 57 | 325 | 3.5 | 5.2 | 0.00 | 0.00 | 0.00 | 90 | 1025.3 |
| 20260902234058 | 58 | 325 | 2.6 | 4.3 | 0.00 | 0.00 | 0.00 | 89 | 1025.4 |
| 20260902233054 | 57 | 321 | 1.7 | 3.5 | 0.00 | 0.00 | 0.00 | 89 | 1025.3 |
| 20260902232050 | 58 | 356 | 0.9 | 2.6 | 0.00 | 0.00 | 0.00 | 86 | 1025.3 |
| 20260902231045 | 59 | 0 | 0.9 | 1.7 | 0.00 | 0.00 | 0.00 | 87 | 1025.4 |
| 20260902230041 | 59 | 0 | 2.6 | 2.6 | 0.00 | 0.00 | 0.00 | 86 | 1025.4 |
| 20260902225037 | 59 | 344 | 1.7 | 2.6 | 0.00 | 0.00 | 0.00 | 86 | 1025.4 |
| 20260902224033 | 60 | 292 | 1.7 | 2.6 | 0.00 | 0.00 | 0.00 | 84 | 1025.5 |
| 20260902223029 | 61 | 225 | 1.7 | 2.6 | 0.00 | 0.00 | 0.00 | 83 | 1025.5 |
| 20260902222024 | 61 | 206 | 2.6 | 4.3 | 0.00 | 0.00 | 0.00 | 84 | 1025.4 |
| 20260902221020 | 61 | 223 | 4.3 | 6.1 | 0.00 | 0.00 | 0.00 | 85 | 1025.4 |
| 20260902220015 | 60 | 226 | 3.5 | 4.3 | 0.00 | 0.00 | 0.00 | 86 | 1025.5 |
| 20260902215011 | 60 | 225 | 3.5 | 5.2 | 0.00 | 0.00 | 0.00 | 87 | 1025.5 |
| 20260902214007 | 61 | 227 | 3.5 | 6.1 | 0.00 | 0.00 | 0.00 | 87 | 1025.5 |
| 20260902213003 | 60 | 227 | 3.5 | 5.2 | 0.00 | 0.00 | 0.00 | 87 | 1025.4 |
| 20260902211958 | 60 | 240 | 3.5 | 6.1 | 0.00 | 0.00 | 0.00 | 87 | 1025.4 |
| 20260902210954 | 60 | 251 | 3.5 | 5.2 | 0.00 | 0.00 | 0.00 | 86 | 1025.3 |
| 20260902205950 | 60 | 258 | 3.5 | 6.1 | 0.00 | 0.00 | 0.00 | 86 | 1025.3 |
| 20260902204945 | 60 | 270 | 3.5 | 6.1 | 0.00 | 0.00 | 0.00 | 85 | 1025.2 |
| 20260902203941 | 60 | 277 | 2.6 | 5.2 | 0.00 | 0.00 | 0.00 | 84 | 1025.1 |
| 20260902202937 | 61 | 311 | 2.6 | 3.5 | 0.00 | 0.00 | 0.00 | 82 | 1025.1 |
| 20260902201932 | 62 | 315 | 1.7 | 2.6 | 0.00 | 0.00 | 0.00 | 81 | 1025.1 |
| 20260902200928 | 62 | 315 | 1.7 | 3.5 | 0.00 | 0.00 | 0.00 | 80 | 1025.1 |
| 20260902195923 | 62 | 322 | 1.7 | 2.6 | 0.00 | 0.00 | 0.00 | 80 | 1025.0 |
| 20260902194919 | 62 | 321 | 1.7 | 2.6 | 0.00 | 0.00 | 0.00 | 80 | 1025.0 |
| 20260902193914 | 62 | 316 | 1.7 | 2.6 | 0.00 | 0.00 | 0.00 | 79 | 1025.1 |
| 20260902192910 | 62 | 0 | 2.6 | 2.6 | 0.00 | 0.00 | 0.00 | 80 | 1025.0 |
| 20260902191906 | 62 | 0 | 3.5 | 3.5 | 0.00 | 0.00 | 0.00 | 79 | 1025.0 |
| 20260902190901 | 62 | 0 | 2.6 | 3.5 | 0.00 | 0.00 | 0.00 | 79 | 1024.9 |
| 20260902185857 | 61 | 0 | 2.6 | 3.5 | 0.00 | 0.00 | 0.00 | 79 | 1024.7 |
| 20260902184853 | 61 | 0 | 3.5 | 4.3 | 0.00 | 0.00 | 0.00 | 79 | 1024.6 |
| 20260902183849 | 61 | 357 | 3.5 | 5.2 | 0.00 | 0.00 | 0.00 | 81 | 1024.7 |
| 20260902182845 | 61 | 323 | 2.6 | 5.2 | 0.00 | 0.00 | 0.00 | 80 | 1024.8 |
| 20260902181840 | 63 | 0 | 3.5 | 4.3 | 0.00 | 0.00 | 0.00 | 75 | 1024.8 |
| 20260902180836 | 62 | 0 | 3.5 | 5.2 | 0.00 | 0.00 | 0.00 | 76 | 1024.4 |
| 20260902175831 | 61 | 353 | 5.2 | 7.0 | 0.00 | 0.00 | 0.00 | 81 | 1024.3 |
| 20260902174826 | 62 | 354 | 5.2 | 7.0 | 0.00 | 0.00 | 0.00 | 83 | 1024.4 |
| 20260902173822 | 63 | 2 | 5.2 | 7.0 | 0.00 | 0.00 | 0.00 | 79 | 1024.4 |
| 20260902172817 | 63 | 359 | 3.5 | 6.1 | 0.00 | 0.00 | 0.00 | 74 | 1024.3 |
| 20260902171813 | 63 | 344 | 2.6 | 5.2 | 0.00 | 0.00 | 0.00 | 68 | 1024.6 |
| 20260902170808 | 64 | 343 | 3.5 | 7.0 | 0.00 | 0.00 | 0.00 | 67 | 1024.8 |
| 20260902165802 | 70 | 341 | 1.7 | 3.5 | 0.00 | 0.00 | 0.00 | 56 | 1024.3 |
| 20260902164757 | 72 | 0 | 0.0 | 0.0 | 0.00 | 0.00 | 0.00 | 61 | 1025.8 |